Погода в Уваровке

Россия / Самарская область     53°07′25″N   48°21′41″E
темп.,
°C
ветер,
м/с
пор.,
м/с
влажн.,
%
обл.,
%
осадки,
мм/ч
давл.,
гПа
погр.,
м
18 сентября, сб
сб1801:00+6сз466999 0.1 1018370
04:00+3сз378669 0.1 1018163
07:00+3сз36880 0.0 1019150
10:00+8ссз67555 0.0 1020936
13:00+11ссз67415 0.0 10201564
16:00+10с664534 0.0 10211480
19:00+6ссв3660100 0.0 1022100
22:00+7с2354100 0.0 102381
19 сентября, вс
вс1901:00+4ссз2265100 0.0 102417
04:00+3сз1175100 0.0 102410
07:00+2ссз117493 0.0 102510
10:00+8св225020 0.0 1026725
13:00+11св213872 0.0 10251190
16:00+12св2134100 0.0 10241309
19:00+9всв224293 0.0 102430
22:00+7в255683 0.0 1024151
20 сентября, пн
пн2001:00+6в2654100 0.0 1024135
04:00+5в3854100 0.0 1024199
07:00+6в3753100 0.0 1024232
10:00+7в3557100 0.3 1024311
13:00+7в4874100 2.4 1024658
16:00+6в61193100 8.1 1023540
19:00+6всв71391100 2.7 1022501
22:00+7в71487100 3.9 1022496
21 сентября, вт
вт2101:00+7в71488100 1.6 1021518
04:00+7в81686100 1.6 1020491
07:00+7вюв71482100 0.0 1019486
10:00+8вюв7128556 1.9 1018468
13:00+14вюв68636 0.1 1017799
16:00+17вюв57526 0.2 1015822
19:00+12всв4107095 0.0 1014224
22:00+12в51260100 0.0 1013287
22 сентября, ср
ср2201:00+10в2275100 0.9 101251
04:00+11вюв2393100 1.9 101170
07:00+13вюв41099100 0.8 1009460
10:00+13ююв71296100 7.7 1009753
13:00+12з4689100 2.2 1010454
16:00+16зюз366053 2.2 10111224
19:00+13зюз3474100 0.1 101390
22:00+10зюз22785 0.1 101413